Location: Ay?beleni
(36.6500°N, 30.3000°E)
Time: 04:48:39
(UTC+00:00)

IRIS - Pass Details

Date: 16 October 2021
Orbit: 280 x 2613 km, 41.1° (Epoch: 08 December)

Event Time Altitude Azimuth Distance (km) Brightness Sun altitude
Rises 14:24:37 0° 276° (W) 2,390 9.4 10.1°
Reaches altitude 10° 14:27:08 10° 288° (WNW) 1,314 7.8 9.6°
Drops below altitude 10° 14:31:43 10° 58° (ENE) 1,111 5.8 8.8°
Enters shadow 14:35:46 -7° 77° (ENE) 2,872 7.8 8.0°
Exits shadow 15:10:31 -65° 97° (E) 13,862 11.6 1.2°
Maximum altitude 16:30:17 50° 17° (NNE) 384 3.9 -14.6°
